| time (UTC) | temp F | wind direction | speed MPH | gust MPH | rain 1hr in | rain 24hr in | rain mn in | humidity % | barometer mb |
| 20260506023004 | 68 | 44 | 1.0 | 9.0 | 0.00 | 0.00 | 0.00 | 44 | 1010.1 |
| 20260506021504 | 69 | 45 | 3.0 | 11.0 | 0.00 | 0.00 | 0.00 | 44 | 1010.1 |
| 20260506020009 | 69 | 46 | 3.0 | 14.0 | 0.00 | 0.00 | 0.00 | 42 | 1010.1 |
| 20260506014530 | 70 | 29 | 8.0 | 17.0 | 0.00 | 0.00 | 0.00 | 41 | 1009.9 |
| 20260506013021 | 71 | 56 | 5.0 | 12.0 | 0.00 | 0.00 | 0.00 | 41 | 1009.8 |
| 20260506011525 | 71 | 47 | 10.0 | 14.0 | 0.00 | 0.00 | 0.00 | 40 | 1009.6 |
| 20260506010008 | 72 | 63 | 7.0 | 13.0 | 0.00 | 0.00 | 0.00 | 39 | 1009.5 |
| 20260506004512 | 73 | 53 | 9.0 | 16.0 | 0.00 | 0.00 | 0.00 | 37 | 1009.3 |
| 20260506003016 | 74 | 72 | 8.0 | 21.0 | 0.00 | 0.00 | 0.00 | 38 | 1009.1 |
| 20260506001520 | 73 | 58 | 10.0 | 16.0 | 0.00 | 0.00 | 0.00 | 39 | 1009.1 |
| 20260506000024 | 74 | 41 | 7.0 | 14.0 | 0.00 | 0.00 | 0.00 | 40 | 1008.9 |
| 20260505234507 | 74 | 66 | 10.0 | 15.0 | 0.00 | 0.00 | 0.00 | 39 | 1008.9 |
| 20260505233014 | 75 | 72 | 15.0 | 21.0 | 0.00 | 0.00 | 0.00 | 39 | 1008.7 |
| 20260505231522 | 75 | 48 | 10.0 | 17.0 | 0.00 | 0.00 | 0.00 | 40 | 1008.6 |
| 20260505230022 | 75 | 30 | 10.0 | 16.0 | 0.00 | 0.00 | 0.00 | 40 | 1008.6 |
| 20260505224526 | 75 | 56 | 11.0 | 24.0 | 0.00 | 0.00 | 0.00 | 39 | 1008.6 |
| 20260505223011 | 76 | 58 | 12.0 | 19.0 | 0.00 | 0.00 | 0.00 | 38 | 1008.7 |
| 20260505221515 | 76 | 43 | 14.0 | 23.0 | 0.00 | 0.00 | 0.00 | 38 | 1008.6 |
| 20260505220021 | 76 | 58 | 11.0 | 20.0 | 0.00 | 0.00 | 0.00 | 40 | 1008.6 |
| 20260505214530 | 76 | 44 | 10.0 | 26.0 | 0.00 | 0.00 | 0.00 | 39 | 1008.4 |
| 20260505213025 | 76 | 53 | 9.0 | 17.0 | 0.00 | 0.00 | 0.00 | 42 | 1008.3 |
| 20260505211512 | 76 | 43 | 9.0 | 19.0 | 0.00 | 0.00 | 0.00 | 41 | 1008.3 |
| 20260505210016 | 76 | 50 | 8.0 | 28.0 | 0.00 | 0.00 | 0.00 | 40 | 1008.2 |
| 20260505204521 | 76 | 309 | 14.0 | 24.0 | 0.00 | 0.00 | 0.00 | 40 | 1008.2 |
| 20260505203028 | 76 | 51 | 13.0 | 19.0 | 0.00 | 0.00 | 0.00 | 39 | 1008.3 |
| 20260505201525 | 77 | 51 | 12.0 | 18.0 | 0.00 | 0.00 | 0.00 | 38 | 1008.3 |
| 20260505200013 | 77 | 51 | 15.0 | 27.0 | 0.00 | 0.00 | 0.00 | 37 | 1008.4 |
| 20260505194517 | 78 | 69 | 13.0 | 19.0 | 0.00 | 0.00 | 0.00 | 37 | 1008.4 |
| 20260505193021 | 78 | 42 | 13.0 | 21.0 | 0.00 | 0.00 | 0.00 | 38 | 1008.6 |
| 20260505191526 | 78 | 44 | 10.0 | 18.0 | 0.00 | 0.00 | 0.00 | 38 | 1008.6 |
| 20260505190022 | 78 | 16 | 20.0 | 28.0 | 0.00 | 0.00 | 0.00 | 36 | 1008.9 |
| 20260505184516 | 77 | 54 | 17.0 | 22.0 | 0.00 | 0.00 | 0.00 | 38 | 1009.1 |
| 20260505183033 | 77 | 22 | 15.0 | 23.0 | 0.00 | 0.00 | 0.00 | 38 | 1009.3 |
| 20260505181523 | 78 | 54 | 14.0 | 23.0 | 0.00 | 0.00 | 0.00 | 40 | 1009.3 |
| 20260505180013 | 76 | 66 | 15.0 | 23.0 | 0.00 | 0.00 | 0.00 | 39 | 1009.6 |
| 20260505174512 | 77 | 51 | 17.0 | 28.0 | 0.00 | 0.00 | 0.00 | 41 | 1009.6 |
| 20260505173018 | 77 | 65 | 11.0 | 25.0 | 0.00 | 0.00 | 0.00 | 44 | 1009.8 |
| 20260505171520 | 76 | 67 | 11.0 | 21.0 | 0.00 | 0.00 | 0.00 | 45 | 1009.7 |
| 20260505170009 | 76 | 72 | 10.0 | 22.0 | 0.00 | 0.00 | 0.00 | 42 | 1009.9 |
| 20260505164509 | 76 | 101 | 11.0 | 26.0 | 0.00 | 0.00 | 0.00 | 44 | 1010.2 |
| 20260505163018 | 75 | 66 | 17.0 | 26.0 | 0.00 | 0.00 | 0.00 | 49 | 1010.5 |
| 20260505161519 | 75 | 106 | 9.0 | 19.0 | 0.00 | 0.00 | 0.00 | 49 | 1010.3 |
| 20260505153014 | 74 | 72 | 13.0 | 22.0 | 0.00 | 0.00 | 0.00 | 51 | 1010.8 |
| 20260505151515 | 73 | 29 | 12.0 | 20.0 | 0.00 | 0.00 | 0.00 | 48 | 1010.8 |
| 20260505124535 | 65 | 41 | 8.0 | 9.0 | 0.00 | 0.00 | 0.00 | 1011.5 | |
| 20260505123031 | 65 | 36 | 5.0 | 8.0 | 0.00 | 0.00 | 0.00 | 1011.4 | |
| 20260505121537 | 64 | 65 | 3.0 | 3.0 | 0.00 | 0.00 | 0.00 | 1011.3 | |
| 20260505120040 | 63 | 79 | 1.0 | 2.0 | 0.00 | 0.00 | 0.00 | 74 | 1011.1 |
| 20260505114536 | 59 | 1.0 | 3.0 | 0.00 | 0.00 | 0.00 | 76 | 1011.0 | |
| 20260505113031 | 58 | 146 | 0.0 | 1.0 | 0.00 | 0.00 | 0.00 | 79 | 1011.2 |
| 20260505111531 | 55 | 149 | 1.0 | 2.0 | 0.00 | 0.00 | 0.00 | 83 | 1011.1 |
| 20260505101541 | 52 | 162 | 2.0 | 3.0 | 0.00 | 0.00 | 0.00 | 82 | 1010.4 |
| 20260505100029 | 52 | 141 | 1.0 | 2.0 | 0.00 | 0.00 | 0.00 | 83 | 1010.4 |
| 20260505094536 | 52 | 172 | 1.0 | 4.0 | 0.00 | 0.00 | 0.00 | 82 | 1010.5 |
| 20260505093014 | 53 | 136 | 1.0 | 3.0 | 0.00 | 0.00 | 0.00 | 80 | 1010.2 |
| 20260505091526 | 54 | 83 | 0.0 | 3.0 | 0.00 | 0.00 | 0.00 | 79 | 1010.3 |
| 20260505090023 | 54 | 117 | 1.0 | 3.0 | 0.00 | 0.00 | 0.00 | 80 | 1010.2 |
| 20260505084505 | 55 | 82 | 1.0 | 4.0 | 0.00 | 0.00 | 0.00 | 77 | 1010.1 |
| 20260505083017 | 57 | 113 | 1.0 | 5.0 | 0.00 | 0.00 | 0.00 | 73 | 1010.2 |
| 20260505081530 | 60 | 358 | 3.0 | 9.0 | 0.00 | 0.00 | 0.00 | 67 | 1010.1 |
| 20260505080028 | 58 | 95 | 1.0 | 6.0 | 0.00 | 0.00 | 0.00 | 72 | 1010.1 |
| 20260505074529 | 58 | 129 | 0.0 | 4.0 | 0.00 | 0.00 | 0.00 | 74 | 1010.0 |
| 20260505073034 | 58 | 275 | 2.0 | 5.0 | 0.00 | 0.00 | 0.00 | 74 | 1010.1 |
| 20260505071527 | 59 | 72 | 2.0 | 10.0 | 0.00 | 0.00 | 0.00 | 69 | 1010.4 |
| 20260505070018 | 57 | 9 | 3.0 | 6.0 | 0.00 | 0.00 | 0.00 | 72 | 1009.6 |
| 20260505064522 | 58 | 107 | 1.0 | 3.0 | 0.00 | 0.00 | 0.00 | 68 | 1010.0 |
| 20260505063026 | 57 | 146 | 1.0 | 3.0 | 0.00 | 0.00 | 0.00 | 69 | 1010.1 |
| 20260505061511 | 57 | 141 | 1.0 | 2.0 | 0.00 | 0.00 | 0.00 | 68 | 1010.1 |
| 20260505060042 | 59 | 123 | 1.0 | 2.0 | 0.00 | 0.00 | 0.00 | 65 | 1010.1 |
| 20260505054518 | 60 | 121 | 2.0 | 3.0 | 0.00 | 0.00 | 0.00 | 63 | 1010.2 |
| 20260505053025 | 60 | 102 | 2.0 | 6.0 | 0.00 | 0.00 | 0.00 | 61 | 1010.3 |
| 20260505051529 | 60 | 78 | 3.0 | 7.0 | 0.00 | 0.00 | 0.00 | 62 | 1010.2 |
| 20260505041526 | 62 | 115 | 3.0 | 8.0 | 0.00 | 0.00 | 0.00 | 55 | 1010.0 |
| 20260505040028 | 62 | 131 | 6.0 | 14.0 | 0.00 | 0.00 | 0.00 | 54 | 1009.9 |
| 20260505034527 | 62 | 94 | 6.0 | 14.0 | 0.00 | 0.00 | 0.00 | 54 | 1009.8 |
| 20260505033029 | 62 | 116 | 8.0 | 15.0 | 0.00 | 0.00 | 0.00 | 54 | 1009.8 |
| 20260505031520 | 62 | 44 | 7.0 | 12.0 | 0.00 | 0.00 | 0.00 | 53 | 1009.8 |
| 20260505030024 | 62 | 13 | 7.0 | 16.0 | 0.00 | 0.00 | 0.00 | 53 | 1009.6 |
| 20260505024527 | 62 | 336 | 6.0 | 11.0 | 0.00 | 0.00 | 0.00 | 51 | 1009.9 |